FW8987 Weather Reports


time (UTC)temp
F
wind
direction
speed
knots
gust
knots
rain 1hr
in
rain 24hr
in
rain mn
in
humidity
%
barometer
mb
20260902211022 54 208 0.9 3.5 0.00 0.00 0.00 77 1004.7
20260902210018 54 202 0.9 2.6 0.00 0.00 0.00 78 1004.7
20260902205034 52 221 0.0 1.7 0.00 0.00 0.00 81 1004.7
20260902204029 53 185 0.0 0.9 0.00 0.00 0.00 81 1004.7
20260902203024 52 0.0 0.0 0.00 0.00 0.00 83 1004.7
20260902202020 52 172 0.0 0.9 0.00 0.00 0.00 83 1004.7
20260902201035 52 182 0.0 0.9 0.00 0.00 0.00 84 1004.7
20260902200030 52 0.0 0.0 0.00 0.00 0.00 84 1004.6
20260902195025 53 157 0.0 0.9 0.00 0.00 0.00 83 1004.6
20260902194021 55 0.0 0.0 0.00 0.00 0.00 79 1004.7
20260902193017 55 213 0.9 1.7 0.00 0.00 0.00 77 1004.7
20260902192032 54 190 0.0 0.9 0.00 0.00 0.00 79 1004.7
20260902191026 55 0.0 0.0 0.00 0.00 0.00 77 1004.7
20260902190043 56 0.0 0.0 0.00 0.00 0.00 76 1004.6
20260902185018 56 0.0 0.0 0.00 0.00 0.00 75 1004.5
20260902184033 57 0.0 0.0 0.00 0.00 0.00 73 1004.6
20260902183049 58 190 0.0 0.9 0.00 0.00 0.00 71 1004.6
20260902182024 59 189 0.0 1.7 0.00 0.00 0.00 69 1004.6
20260902181019 59 189 0.0 0.9 0.00 0.00 0.00 69 1004.4
20260902180015 60 186 0.0 1.7 0.00 0.00 0.00 67 1004.4
20260902175031 61 185 0.0 1.7 0.00 0.00 0.00 65 1004.4
20260902174026 62 210 0.9 2.6 0.00 0.00 0.00 64 1004.3
20260902173020 63 201 0.9 3.5 0.00 0.00 0.00 61 1004.2
20260902172056 64 217 0.9 3.5 0.00 0.00 0.00 59 1004.2
20260902171052 65 207 1.7 6.1 0.00 0.00 0.00 57 1004.1
20260902170027 66 219 1.7 3.5 0.00 0.00 0.00 57 1004.2
20260902165042 66 230 2.6 7.0 0.00 0.00 0.00 55 1004.1
20260902164017 66 206 2.6 7.8 0.00 0.00 0.00 55 1003.9
20260902163033 67 215 1.7 3.5 0.00 0.00 0.00 56 1003.9
20260902162028 67 236 2.6 7.8 0.00 0.00 0.00 56 1004.0
20260902161024 68 232 3.5 12.2 0.00 0.00 0.00 56 1004.0
20260902160019 68 246 4.3 7.8 0.00 0.00 0.00 55 1004.0
20260902155035 69 243 4.3 11.3 0.00 0.00 0.00 54 1004.0
20260902154029 68 226 2.6 7.0 0.00 0.00 0.00 60 1003.8
20260902153044 67 199 1.7 3.5 0.00 0.00 0.00 63 1004.0
20260902152039 68 192 0.9 2.6 0.00 0.00 0.00 64 1004.1
20260902151035 69 197 0.9 2.6 0.00 0.00 0.00 62 1004.0
20260902150031 67 203 1.7 2.6 0.00 0.00 0.00 65 1004.1
20260902145025 68 194 1.7 3.5 0.00 0.00 0.00 63 1004.1
20260902144021 70 199 1.7 3.5 0.00 0.00 0.00 61 1004.2
20260902143016 68 192 1.7 5.2 0.00 0.00 0.00 62 1004.4
20260902142052 68 215 2.6 5.2 0.00 0.00 0.00 62 1004.4
20260902141027 67 235 3.5 9.6 0.00 0.00 0.00 63 1004.5
20260902140022 69 209 1.7 5.2 0.00 0.00 0.00 60 1004.7
20260902135038 69 237 5.2 11.3 0.00 0.00 0.00 59 1004.7
20260902134032 68 223 3.5 9.6 0.00 0.00 0.00 61 1004.7
20260902133048 69 216 2.6 7.8 0.00 0.00 0.00 59 1004.7
20260902132024 69 231 3.5 9.6 0.00 0.00 0.00 60 1004.8
20260902131019 68 234 3.5 12.2 0.00 0.00 0.00 61 1004.9
20260902130035 68 235 2.6 7.0 0.00 0.00 0.00 61 1004.8
20260902125030 68 208 1.7 7.0 0.00 0.00 0.00 63 1005.0
20260902124025 67 234 1.7 6.1 0.00 0.00 0.00 64 1005.0
20260902123020 65 243 3.5 7.0 0.00 0.00 0.00 67 1005.2
20260902122016 66 256 4.3 9.6 0.00 0.00 0.00 66 1005.3
20260902121052 67 235 4.3 8.7 0.00 0.00 0.00 66 1005.4
20260902120027 66 251 7.0 13.9 0.00 0.00 0.00 67 1005.6
20260902115023 66 224 3.5 9.6 0.00 0.00 0.00 69 1005.5
20260902114018 66 204 1.7 5.2 0.00 0.00 0.00 70 1005.5
20260902113033 66 232 3.5 7.8 0.00 0.00 0.00 70 1005.6
20260902112029 66 215 2.6 7.8 0.00 0.00 0.00 70 1005.7
20260902111024 66 249 4.3 8.7 0.00 0.00 0.00 69 1005.7
20260902110019 66 230 2.6 6.1 0.00 0.00 0.00 71 1005.7
20260902105056 65 231 2.6 8.7 0.00 0.00 0.00 73 1005.9
20260902104051 65 247 2.6 5.2 0.00 0.00 0.00 72 1005.9
20260902103026 64 241 3.5 7.0 0.00 0.00 0.00 72 1006.0
20260902102021 63 227 1.7 6.1 0.00 0.00 0.00 75 1006.0
20260902101015 64 246 4.3 7.8 0.00 0.00 0.00 75 1005.9
20260902100056 65 250 3.5 7.0 0.00 0.00 0.00 74 1005.9
20260902095027 65 248 4.3 11.3 0.00 0.00 0.00 75 1006.0
20260902094027 64 230 3.5 6.1 0.00 0.00 0.00 76 1006.0
20260902093017 64 243 5.2 9.6 0.00 0.00 0.00 75 1006.1
20260902092032 63 240 3.5 7.0 0.00 0.00 0.00 78 1006.1
20260902091047 65 229 3.5 8.7 0.00 0.00 0.00 76 1006.1
20260902090043 64 211 3.5 7.8 0.00 0.00 0.00 77 1006.0
20260902085018 63 201 2.6 6.1 0.00 0.00 0.00 80 1006.1
20260902084034 63 218 2.6 6.1 0.00 0.00 0.00 80 1006.2
20260902083050 62 235 3.5 7.0 0.00 0.00 0.00 81 1006.1
20260902082025 62 235 2.6 7.8 0.00 0.00 0.00 82 1006.2
20260902081020 60 237 3.5 5.2 0.00 0.00 0.00 86 1006.2
20260902080016 60 230 2.6 6.1 0.00 0.00 0.00 89 1006.4
20260902075031 59 250 4.3 7.8 0.00 0.00 0.00 92 1006.5
20260902074026 58 247 3.5 7.0 0.00 0.00 0.00 94 1006.5
20260902073022 58 244 3.5 7.0 0.00 0.00 0.00 96 1006.6
20260902072037 57 230 2.6 6.1 0.00 0.00 0.00 98 1006.6
20260902071052 56 225 2.6 6.1 0.00 0.00 0.00 98 1006.6
20260902070027 56 225 1.7 3.5 0.00 0.00 0.00 99 1006.5
20260902065044 55 230 2.6 5.2 0.00 0.00 0.00 99 1006.5
20260902064018 55 216 1.7 3.5 0.00 0.00 0.00 99 1006.5
20260902063033 54 229 2.6 6.1 0.00 0.00 0.00 99 1006.5
20260902062029 54 241 2.6 6.1 0.00 0.00 0.00 99 1006.5
20260902061024 53 230 1.7 7.0 0.00 0.00 0.00 99 1006.6
20260902060040 53 190 0.9 2.6 0.00 0.00 0.00 96 1006.6
20260902055035 52 159 0.0 0.9 0.00 0.00 0.00 94 1006.5
20260902054030 50 0.0 0.0 0.00 0.00 0.00 98 1006.3
20260902053026 48 0.0 0.0 0.00 0.00 0.00 99 1006.3
20260902052022 47 0.0 0.0 0.00 0.00 0.00 99 1006.3
20260902051017 46 0.0 0.0 0.00 0.00 0.00 99 1006.4
20260902050052 44 0.0 0.0 0.00 0.00 0.00 99 1006.5
20260902045028 44 0.0 0.0 0.00 0.00 0.00 99 1006.5
20260902044022 42 0.0 0.0 0.00 0.00 0.00 99 1006.4
20260902043017 42 0.0 0.0 0.00 0.00 0.00 99 1006.6
20260902042032 42 0.0 0.0 0.00 0.00 0.00 99 1006.6
20260902041022 43 0.0 0.0 0.00 0.00 0.00 99 1006.6
20260902040018 43 0.0 0.0 0.00 0.00 0.00 99 1006.6
20260902035032 43 0.0 0.0 0.00 0.00 0.00 99 1006.7
20260902034027 43 0.0 0.0 0.00 0.00 0.00 99 1006.8
20260902033023 43 0.0 0.0 0.00 0.00 0.00 99 1006.8
20260902032059 42 0.0 0.0 0.00 0.00 0.00 99 1007.0
20260902031034 43 0.0 0.0 0.00 0.00 0.00 99 1006.9
20260902030029 43 0.0 0.0 0.00 0.00 0.00 99 1006.9
20260902025025 43 0.0 0.0 0.00 0.00 0.00 99 1007.0
20260902024019 43 0.0 0.0 0.00 0.00 0.00 99 1007.2
20260902023035 44 0.0 0.0 0.00 0.00 0.00 99 1007.1
20260902022030 43 0.0 0.0 0.00 0.00 0.00 99 1007.1
20260902021025 44 0.0 0.0 0.00 0.00 0.00 99 1007.1
20260902020042 44 0.0 0.0 0.00 0.00 0.00 99 1007.2
20260902015016 44 0.0 0.0 0.00 0.00 0.00 99 1007.2
20260902014032 43 0.0 0.0 0.00 0.00 0.00 99 1007.3
20260902013047 44 0.0 0.0 0.00 0.00 0.00 99 1007.3
20260902012022 44 0.0 0.0 0.00 0.00 0.00 99 1007.4
20260902011037 44 0.0 0.0 0.00 0.00 0.00 99 1007.3
20260902010034 45 0.0 0.0 0.00 0.00 0.00 99 1007.4
20260902005028 46 0.0 0.0 0.00 0.00 0.00 99 1007.3
20260902004103 46 0.0 0.0 0.00 0.00 0.00 99 1007.4
20260902003039 45 0.0 0.0 0.00 0.00 0.00 99 1007.4
20260902002034 46 0.0 0.0 0.00 0.00 0.00 99 1007.4
20260902001050 46 0.0 0.0 0.00 0.00 0.00 99 1007.4
20260902000044 46 0.0 0.0 0.00 0.00 0.00 99 1007.4
20260901235019 46 0.0 0.0 0.00 0.00 0.00 99 1007.6
20260901234034 47 0.0 0.0 0.00 0.00 0.00 99 1007.6
20260901233050 48 0.0 0.0 0.00 0.00 0.00 99 1007.5
20260901232047 47 0.0 0.0 0.00 0.00 0.00 99 1007.7
20260901231021 48 0.0 0.0 0.00 0.00 0.00 99 1007.6
20260901230016 48 0.0 0.0 0.00 0.00 0.00 99 1007.7
20260901225052 48 0.0 0.0 0.00 0.00 0.00 99 1007.7
20260901224027 47 0.0 0.0 0.00 0.00 0.00 99 1007.7
20260901223022 48 0.0 0.0 0.00 0.00 0.00 99 1007.8
20260901222018 49 0.0 0.0 0.00 0.00 0.00 99 1007.8
20260901221033 49 0.0 0.0 0.00 0.00 0.00 99 1007.8
20260901220028 49 0.0 0.0 0.00 0.00 0.00 99 1007.9
20260901215024 48 0.0 0.0 0.00 0.00 0.00 99 1007.9
20260901214020 48 151 0.9 0.9 0.00 0.00 0.00 99 1007.9
20260901213035 48 0.0 0.0 0.00 0.00 0.00 99 1007.9
20260901212030 49 0.0 0.0 0.00 0.00 0.00 99 1007.7